CAPE
0 0 0 0 0 0 66 32 0 0 0 0 0 0 0 0 0 0 0 0 13 581 441 52 7 3 0 72 702 934 992 700 892 489 398 205 568 544 764 521 580 629 494
0 0 0 0 0 0 0 0 8 0 0 0 0 0 0 0 0 0 12 1 358 51 2 0 27 110 1 0 6 792 1102 644 685 605 214 290 383 343 427 589 545 855 896
0 0 0 0 0 0 0 0 0 0 0 0 0 0 0 0 0 0 0 0 8 1 0 0 1 0 156 297 366 858 884 822 526 315 165 7 0 0 0 367 426 393 314
0 0 0 0 0 0 0 0 0 0 0 0 0 0 0 0 0 0 0 0 0 80 99 87 34 13 505 712 1036 1107 825 592 345 166 0 0 0 0 0 237 229 106 311
0 0 0 0 0 0 0 0 0 0 0 0 0 0 0 0 9 0 0 0 0 78 0 3 4 0 504 782 1262 1071 539 260 89 36 19 10 4 0 0 0 5 26 41
0 0 0 0 0 0 0 0 0 0 0 0 0 0 0 0 0 0 0 0 7 39 163 323 648 350 342 775 365 31 0 0 0 0 0 0 0 0 0 0 0 0 5
0 0 0 0 0 0 0 1 0 0 0 14 14 2 0 12 0 0 1 0 0 6 0 0 0 0 0 0 0 0 0 0 0 0 0 0 0 0 0 0 0 0 0
0 0 0 0 0 0 0 0 0 0 0 0 41 62 24 32 17 0 0 0 2 109 2 0 0 0 0 0 0 0 0 0 0 0 0 0 0 0 0 0 0 0 0
0 0 0 3 4 1 0 0 0 0 0 2 26 56 90 26 2 13 2 0 0 39 34 5 14 0 0 0 0 0 0 0 0 0 0 0 0 0 0 0 0 0 0
0 0 0 0 0 5 4 6 4 0 0 1 0 0 38 62 0 0 0 0 0 43 164 108 13 1 0 0 0 0 0 0 0 0 0 0 0 0 0 0 0 0 0
0 2 7 15 24 21 9 9 17 2 0 0 0 0 7 51 48 0 0 0 0 0 68 236 60 16 0 0 0 0 0 0 0 0 0 0 0 0 0 0 0 0 0
1 0 0 0 15 16 22 33 45 13 0 0 0 0 0 10 67 54 0 0 0 0 2 108 89 0 0 0 0 0 0 0 0 0 0 0 0 0 0 0 1 0 0
7 5 3 8 9 20 39 29 41 8 0 0 0 0 0 0 46 29 9 0 0 0 0 26 59 0 0 0 0 0 0 0 0 0 0 0 0 0 0 2 0 0 0
12 10 6 4 5 1 19 25 45 29 0 0 0 0 0 0 0 0 1 1 0 0 0 0 0 0 0 0 0 0 0 0 0 0 0 0 0 0 0 0 0 37 115
11 11 11 18 10 6 11 20 0 1 3 0 0 0 0 11 0 0 0 3 0 0 0 0 0 0 0 0 0 0 0 0 0 0 0 0 0 0 0 0 14 273 229
9 11 10 14 15 8 13 0 0 0 3 0 0 0 0 0 0 0 0 0 0 0 0 0 0 0 0 0 0 0 0 0 0 0 0 0 0 0 0 0 89 252 70
9 11 14 16 18 13 9 9 16 0 0 0 0 0 0 0 0 0 0 0 0 0 0 0 0 0 0 0 0 0 0 0 0 0 0 0 0 11 2 0 88 80 66
8 10 12 8 7 11 20 26 10 9 10 0 0 0 0 0 0 0 0 0 0 0 0 0 0 0 0 0 0 0 0 0 0 0 0 0 48 19 3 40 89 98 62
5 4 6 13 8 9 19 20 22 5 5 6 2 0 0 0 0 0 0 0 0 0 0 0 0 0 0 0 0 0 0 0 0 0 0 80 114 24 6 57 108 54 39
3 0 1 4 10 10 14 14 7 5 13 10 7 1 0 0 0 0 0 0 0 0 0 0 0 0 0 0 0 0 0 0 0 0 0 90 33 27 14 63 84 37 4
2 2 0 2 4 6 11 14 12 11 10 5 13 2 0 0 0 0 0 0 0 0 0 0 0 0 0 0 0 0 0 0 0 0 27 72 42 47 59 77 78 31 34
1 0 1 2 2 6 8 11 14 16 13 8 4 0 0 0 0 0 0 0 0 0 0 0 0 0 0 0 0 0 0 0 1 62 67 54 37 46 46 52 37 61 13
4 1 1 2 2 0 4 15 13 11 13 13 0 3 0 14 0 0 0 0 0 0 0 0 0 0 0 0 0 0 0 0 0 47 46 31 60 84 75 54 54 11 7
3 4 7 1 6 4 6 9 11 4 11 19 12 0 0 0 3 0 0 0 0 0 0 0 0 0 0 0 0 0 0 0 0 37 120 129 101 77 45 52 6 2 0
4 3 4 6 1 2 3 5 7 7 5 3 12 9 1 0 0 1 0 0 0 0 0 0 0 0 0 0 0 0 0 0 0 53 93 145 108 13 12 12 0 0 0
4 5 4 3 3 3 2 2 1 3 0 6 3 4 1 0 0 0 1 2 0 0 0 0 0 0 0 0 0 0 0 0 0 0 1 60 15 0 0 0 0 0 0
CIN
-0 -0 -0 -0 -0 -0 -46 -52 -0 -0 -0 -0 -0 -0 -0 -0 -0 -0 -0 -0 -144 -44 -54 -223 -155 -256 -0 -22 -2 -47 -104 -180 -83 -184 -218 -212 -109 -140 -97 -118 -107 -94 -120
-0 -0 -0 -0 -0 -0 -0 -0 -66 -0 -0 -0 -0 -0 -0 -0 -0 -0 -114 -27 -56 -183 -273 -0 -70 -1 -125 -0 -125 -28 -118 -247 -171 -125 -219 -133 -92 -114 -73 -67 -104 -89 -71
-0 -0 -0 -0 -0 -0 -0 -0 -0 -0 -0 -0 -0 -0 -0 -0 -0 -0 -0 -0 -43 -11 -0 -0 -129 -0 -10 -60 -40 -29 -149 -172 -176 -159 -167 -242 -0 -14 -0 -98 -108 -115 -119
-0 -0 -0 -0 -0 -0 -0 -0 -0 -0 -0 -0 -0 -0 -0 -0 -0 -0 -0 -0 -0 -56 -84 -162 -135 -62 -72 -31 -13 -81 -112 -141 -149 -146 -0 -0 -0 -0 -0 -69 -84 -165 -93
-0 -0 -0 -0 -0 -0 -0 -0 -0 -0 -0 -0 -0 -0 -0 -0 -113 -0 -0 -0 -0 -19 -0 -157 -232 -0 -65 -29 -41 -80 -163 -203 -231 -218 -32 -40 -40 -0 -0 -0 -49 -168 -220
-0 -0 -0 -0 -0 -0 -0 -0 -0 -0 -0 -1 -0 -0 -0 -0 -0 -0 -0 -0 -4 -12 -124 -47 -24 -69 -117 -72 -209 -412 -0 -0 -0 -0 -0 -0 -0 -0 -0 -0 -0 -0 -52
-0 -0 -0 -0 -0 -0 -0 -100 -0 -0 -0 -72 -97 -15 -0 -49 -0 -0 -18 -0 -0 -23 -0 -0 -0 -76 -0 -0 -0 -0 -0 -0 -0 -0 -0 -0 -0 -0 -0 -0 -0 -0 -0
-0 -0 -0 -0 -0 -0 -0 -0 -0 -0 -0 -0 -58 -56 -63 -38 -24 -0 -8 -0 -15 -42 -105 -0 -0 -0 -0 -0 -0 -0 -0 -0 -0 -0 -0 -0 -0 -0 -0 -0 -0 -0 -0
-0 -0 -0 -50 -38 -34 -0 -0 -0 -0 -0 -39 -44 -36 -29 -41 -54 -80 -14 -0 -0 -115 -147 -195 -214 -0 -0 -0 -0 -0 -0 -0 -0 -0 -0 -0 -0 -0 -0 -0 -0 -0 -0
-0 -0 -0 -0 -0 -7 -2 -5 -13 -0 -0 -41 -0 -0 -53 -28 -4 -0 -0 -0 -0 -157 -112 -115 -125 -16 -0 -0 -0 -0 -0 -0 -0 -0 -0 -0 -0 -0 -0 -0 -0 -0 -0
-0 -0 -0 -1 -1 -2 -3 -3 -5 -5 -0 -0 -0 -0 -48 -36 -25 -10 -0 -0 -0 -0 -116 -92 -128 -119 -0 -0 -0 -0 -0 -0 -0 -0 -0 -0 -0 -0 -0 -0 -0 -0 -0
-1 -0 -0 -0 -0 -0 -1 -3 -4 -6 -0 -0 -0 -0 -0 -60 -14 -11 -0 -0 -0 -0 -116 -133 -122 -0 -0 -0 -0 -0 -0 -0 -0 -0 -0 -0 -0 -0 -0 -0 -30 -0 -0
-0 -0 -0 -0 -1 -1 -3 -1 -3 -13 -0 -0 -0 -0 -0 -0 -33 -17 -73 -0 -0 -0 -0 -196 -137 -0 -0 -0 -0 -0 -0 -0 -0 -0 -0 -0 -0 -0 -0 -20 -0 -0 -14
-0 -0 -0 -0 -0 -1 -1 -4 -2 -3 -1 -0 -0 -0 -0 -0 -0 -0 -0 -0 -0 -0 -0 -0 -0 -0 -0 -0 -0 -0 -0 -0 -0 -0 -0 -0 -0 -0 -0 -0 -9 -102 -18
-0 -0 -0 -0 -0 -1 -3 -4 -2 -5 -11 -0 -0 -0 -0 -16 -0 -0 -0 -0 -0 -0 -0 -0 -0 -0 -0 -0 -0 -0 -0 -0 -0 -0 -0 -0 -0 -0 -0 -0 -104 -23 -2
-0 -0 -0 -0 -0 -0 -1 -2 -1 -2 -5 -0 -0 -0 -0 -0 -0 -0 -0 -0 -0 -0 -0 -0 -0 -0 -0 -0 -0 -0 -0 -0 -0 -0 -0 -0 -0 -0 -0 -0 -77 -10 -11
-0 -0 -0 -0 -0 -0 -0 -2 -2 -0 -0 -0 -0 -0 -0 -0 -0 -0 -0 -0 -0 -0 -0 -0 -0 -0 -0 -0 -0 -0 -0 -0 -0 -0 -0 -0 -0 -154 -5 -0 -53 -19 -1
-0 -0 -0 -0 -0 -0 -0 -0 -1 -1 -1 -0 -0 -0 -0 -0 -0 -0 -0 -0 -0 -0 -0 -0 -0 -0 -0 -0 -0 -0 -0 -0 -0 -0 -0 -0 -152 -164 -69 -118 -38 -22 -13
-0 -0 -0 -0 -0 -0 -0 -0 -0 -0 -1 -1 -1 -2 -0 -0 -0 -0 -0 -0 -0 -0 -0 -0 -0 -0 -0 -0 -0 -0 -0 -0 -0 -0 -0 -143 -122 -156 -136 -102 -40 -38 -17
-0 -0 -0 -0 -0 -0 -0 -0 -0 -0 -0 -3 -1 -1 -0 -0 -0 -0 -0 -0 -0 -0 -0 -19 -0 -0 -0 -0 -0 -0 -0 -0 -0 -0 -5 -119 -151 -177 -191 -103 -68 -80 -55
-0 -0 -0 -0 -0 -0 -0 -0 -0 -0 -0 -0 -1 -7 -0 -0 -0 -0 -0 -0 -0 -0 -0 -0 -0 -0 -0 -0 -0 -0 -0 -0 -0 -0 -194 -139 -174 -156 -126 -52 -42 -37 -4
-0 -0 -0 -0 -0 -0 -0 -0 -0 -0 -0 -0 -1 -0 -0 -0 -0 -0 -0 -0 -0 -0 -0 -0 -0 -0 -0 -0 -0 -0 -0 -0 -9 -137 -130 -153 -196 -152 -119 -112 -52 -0 -3
-0 -0 -1 -0 -0 -0 -0 -0 -0 -0 -0 -0 -0 -0 -11 -8 -5 -0 -0 -0 -0 -0 -0 -0 -0 -0 -0 -0 -0 -0 -0 -0 -0 -125 -103 -165 -107 -40 -48 -18 -0 -18 -33
-0 -0 -0 -0 -0 -0 -0 -0 -0 -0 -0 -0 -1 -0 -0 -0 -17 -0 -0 -0 -0 -0 -0 -0 -0 -0 -0 -0 -0 -0 -0 -0 -0 -108 -63 -58 -47 -44 -32 -32 -18 -9 -0
-0 -0 -0 -0 -0 -0 -0 -0 -0 -0 -1 -0 -1 -4 -2 -0 -0 -16 -0 -0 -0 -0 -0 -0 -0 -0 -0 -0 -0 -0 -0 -0 -0 -151 -107 -57 -19 -91 -79 -39 -21 -0 -0
-0 -0 -0 -0 -0 -0 -0 -0 -0 -0 -0 -0 -1 -3 -7 -0 -0 -10 -27 -38 -0 -0 -0 -0 -0 -0 -0 -0 -0 -0 -0 -0 -0 -0 -5 -115 -45 -0 -0 -0 -0 -0 -0
Wind_Speed
7 6 6 4 4 4 3 5 4 6 7 11 9 4 4 7 5 11 10 13 15 11 3 5 5 1 1 8 12 5 4 4 5 3 2 2 3 5 3 4 5 6 6
8 6 6 5 3 3 5 6 5 6 6 7 9 11 7 3 6 3 10 15 17 8 10 13 7 2 5 8 16 16 5 5 5 5 1 3 1 3 4 5 5 6 7
8 8 7 6 5 5 5 5 6 7 7 8 10 12 14 9 4 7 4 4 14 13 11 12 14 11 17 15 21 11 4 4 4 4 3 3 3 2 6 6 6 6 4
8 8 8 8 8 7 6 5 5 7 7 7 7 8 8 7 7 8 7 9 12 16 11 13 16 18 19 17 13 7 4 4 4 4 4 4 2 3 4 5 5 3 4
5 6 8 8 8 7 7 7 7 6 8 7 9 8 7 7 6 8 12 17 22 21 13 18 23 22 23 16 8 6 6 4 4 4 2 2 2 2 3 2 2 3 3
6 6 7 7 7 7 7 7 7 7 7 7 8 9 8 8 10 9 14 21 26 22 24 24 17 21 15 17 14 12 10 7 5 5 3 3 2 2 1 0 1 3 3
8 8 8 7 7 7 6 5 4 6 5 7 8 8 8 10 9 6 9 15 9 18 15 15 11 9 13 12 12 12 9 11 9 7 5 4 3 4 3 0 3 4 4
7 7 6 7 9 7 5 6 6 5 6 7 7 10 8 9 11 10 4 14 10 12 6 10 11 9 11 12 9 8 6 5 6 4 5 7 5 4 3 3 3 4 4
11 11 11 11 11 9 10 11 12 12 7 6 6 7 7 11 13 11 5 10 8 7 8 8 10 10 13 16 10 7 5 3 6 12 10 6 5 6 6 1 4 2 4
15 16 15 16 18 19 18 17 13 11 8 5 7 3 7 10 14 14 11 8 6 3 1 7 13 11 16 15 11 8 7 6 3 3 3 1 3 6 9 7 4 5 3
16 18 18 17 17 14 15 15 12 10 10 7 8 5 4 7 9 15 17 11 5 2 3 3 5 13 12 11 10 7 7 6 6 4 1 3 4 5 5 5 6 6 4
17 16 16 16 14 11 16 13 11 10 7 7 6 4 3 6 10 12 18 15 9 6 5 4 4 11 14 14 10 11 11 8 4 1 0 3 4 4 5 5 4 6 6
17 17 17 16 13 14 11 10 8 7 5 5 5 4 3 4 5 10 16 13 10 6 4 4 7 10 12 10 10 11 10 5 4 2 4 5 4 5 4 4 3 6 7
16 17 15 14 14 12 10 8 8 7 4 6 6 4 3 4 3 5 3 6 12 7 9 7 6 7 10 4 6 5 4 4 5 4 5 5 3 2 2 3 3 3 3
15 13 13 11 12 11 9 7 6 5 5 6 3 4 4 2 3 7 6 3 5 8 6 4 4 3 3 4 3 4 4 4 4 4 4 5 5 3 3 2 3 1 2
14 11 9 9 9 9 8 8 13 12 9 7 7 4 1 7 5 8 8 3 5 9 1 3 4 4 5 4 4 4 4 6 6 5 5 6 4 4 3 1 2 1 1
13 12 9 9 9 8 8 6 5 4 10 12 10 9 9 5 3 7 4 10 9 9 7 7 5 5 4 5 5 5 5 6 7 5 5 5 4 3 2 2 1 0 2
14 19 10 8 7 8 7 5 6 7 6 4 8 9 10 12 10 6 5 5 3 2 8 10 9 6 7 7 5 5 4 4 3 4 3 4 4 3 3 3 3 3 3
12 9 8 8 7 8 8 6 5 6 6 6 4 4 13 14 14 12 10 3 3 3 5 5 5 5 5 4 4 4 3 2 3 3 3 4 5 4 4 4 4 4 3
11 15 14 8 6 7 7 6 6 6 4 4 4 3 4 6 6 5 5 4 4 4 4 5 6 5 5 5 3 2 2 3 4 4 5 5 4 4 4 4 4 3 3
9 8 8 6 6 6 6 6 6 6 5 2 4 4 7 5 7 8 6 6 4 3 4 4 6 5 5 5 4 3 3 5 5 5 5 4 4 4 4 4 4 3 3
8 7 5 7 6 5 5 5 5 4 5 5 4 3 6 3 3 5 7 7 5 5 2 3 5 5 5 5 5 4 5 4 4 4 3 4 3 3 4 4 3 3 4
9 7 4 6 3 6 4 3 4 5 5 6 4 2 3 3 3 3 5 8 7 6 4 2 4 5 4 4 5 5 2 3 5 4 5 3 3 4 3 2 1 4 10
10 10 9 7 6 5 4 4 4 4 4 5 5 4 4 3 3 5 4 4 7 8 5 5 4 5 3 3 3 2 1 1 3 3 3 3 4 3 2 3 5 10 10
10 10 10 8 5 4 4 4 4 4 5 3 4 3 4 6 4 4 4 2 4 5 6 6 5 6 4 5 5 6 4 4 4 3 1 3 3 3 3 4 11 8 11
11 12 10 10 9 8 4 3 2 3 4 4 5 4 4 3 4 3 3 3 3 2 5 5 6 9 10 8 7 8 5 3 4 4 2 2 4 4 6 10 12 9 11
Wind_Direction
196 218 231 247 279 302 294 305 308 312 314 324 332 348 65 51 307 292 262 233 225 247 219 58 358 235 312 312 281 280 225 157 180 265 205 187 188 204 229 251 244 248 254
206 200 207 218 230 265 286 289 279 284 292 299 311 309 296 187 181 266 306 254 245 177 180 157 211 245 233 251 274 251 207 163 140 202 267 288 296 3 273 264 269 250 236
204 212 223 215 204 217 221 241 264 275 268 291 306 307 303 291 248 217 206 310 307 239 205 191 172 195 237 203 234 227 218 155 147 133 175 216 187 163 303 265 255 259 252
220 218 217 211 213 218 228 236 255 260 255 256 261 281 282 293 307 313 261 261 310 252 212 193 194 202 217 221 217 208 205 147 148 153 190 218 186 232 216 270 290 271 275
259 234 233 231 224 220 221 228 240 258 261 252 274 275 270 281 295 309 321 292 309 228 201 223 211 209 214 205 183 192 179 149 145 153 163 137 163 135 155 211 255 286 295
308 279 261 255 249 241 242 239 237 250 253 249 255 267 274 276 275 341 336 313 254 192 189 204 193 189 160 154 147 157 154 148 151 153 156 153 201 180 210 169 336 326 307
258 258 261 258 252 242 238 226 246 271 284 267 252 261 255 259 259 278 310 295 23 2 147 135 125 143 139 137 146 137 139 143 143 153 149 172 178 204 173 241 224 240 243
295 284 286 290 283 279 278 274 276 257 260 273 261 256 231 250 238 262 252 272 302 166 139 143 130 152 155 144 139 141 153 159 166 159 166 201 201 223 193 206 218 246 272
309 305 305 297 285 276 267 266 273 274 255 246 264 280 235 253 223 225 239 272 284 162 159 145 141 158 162 139 134 154 162 217 200 189 196 182 195 238 220 136 271 246 279
289 285 281 275 272 273 276 271 264 249 246 238 254 266 300 264 219 200 214 254 253 79 216 143 141 154 166 150 149 162 157 196 135 89 81 98 234 273 267 197 211 220 221
300 292 287 289 289 282 277 264 255 238 242 246 255 239 265 291 255 222 213 228 213 183 174 174 167 151 156 154 155 160 176 158 149 141 110 320 303 285 271 250 206 205 204
292 286 284 281 280 277 271 258 261 238 217 236 247 252 236 268 256 228 240 211 188 178 205 174 164 156 160 178 179 173 153 130 138 115 329 275 265 262 270 269 208 209 218
295 290 284 285 283 270 269 263 248 229 196 237 244 245 260 266 287 244 248 226 211 179 167 135 140 174 181 189 191 170 144 145 150 165 236 252 228 231 253 260 284 262 242
287 284 279 281 284 275 268 245 233 222 209 249 251 236 256 263 53 9 278 197 234 221 132 124 102 144 187 173 107 144 154 167 181 205 224 251 262 252 241 209 248 276 273
282 281 281 278 273 269 260 246 259 202 200 225 224 223 214 182 122 96 35 251 207 226 134 85 87 104 126 148 142 152 170 182 209 229 239 257 260 250 231 212 247 303 270
282 277 271 275 270 267 262 252 223 214 219 207 156 152 308 127 126 68 31 9 46 171 97 152 147 156 161 167 153 163 177 197 224 223 228 241 227 211 239 306 273 343 234
281 281 271 267 273 261 272 257 243 223 219 231 236 185 191 162 91 64 13 352 31 150 208 204 202 174 178 188 173 176 197 210 220 226 237 234 197 188 172 255 261 95 175
285 283 269 252 250 272 252 263 239 227 215 210 224 206 195 168 171 185 165 12 13 251 187 195 198 176 181 187 178 185 213 225 225 239 243 193 183 171 203 236 217 206 197
283 273 267 261 233 240 259 225 235 236 236 227 225 197 182 181 167 178 160 161 285 251 212 173 164 157 163 158 157 168 188 241 249 270 255 184 179 182 208 210 212 195 161
283 266 251 253 243 226 241 224 219 256 214 197 219 208 123 146 166 173 186 173 185 235 248 195 155 135 131 131 132 175 237 276 278 253 221 201 190 189 211 213 202 157 177
290 278 240 242 233 220 222 213 209 207 228 281 207 176 154 151 169 176 172 186 197 217 259 188 148 144 150 169 181 197 234 258 257 249 195 194 183 216 201 205 183 185 185
284 271 260 239 213 200 200 191 192 200 210 209 229 93 137 160 161 167 175 183 186 207 218 240 154 154 178 181 189 201 225 245 247 217 201 216 211 201 218 216 157 236 179
336 335 333 341 166 146 158 174 175 195 205 191 200 156 103 130 174 225 161 176 177 201 190 178 139 137 140 143 161 159 125 287 242 190 200 203 214 226 231 141 145 149 145
355 3 12 34 77 112 129 154 168 192 197 192 182 178 177 166 195 209 200 181 178 195 188 171 167 157 139 119 152 175 171 210 281 253 193 198 231 253 254 106 112 135 127
5 10 13 15 59 90 139 145 155 167 175 208 158 160 177 189 215 180 182 187 178 171 179 176 169 185 209 236 225 227 238 265 288 308 240 242 282 220 149 119 137 132 128
13 16 15 14 14 17 35 104 135 155 166 178 167 188 203 184 170 177 177 209 235 201 184 177 179 186 208 224 221 220 224 216 262 261 283 240 173 137 117 136 143 128 131